EW5678 Weather Reports


Display with metric or nautical units.
time (UTC)temp
F
wind
direction
speed
MPH
gust
MPH
rain 1hr
in
rain 24hr
in
rain mn
in
humidity
%
barometer
mb
20260507022059 58 223 15.0 19.0 0.00 0.06 0.00 91 997.0
20260507021159 58 218 14.0 21.0 0.00 0.06 0.00 91 997.4
20260507020259 57 218 14.0 20.0 0.00 0.06 0.00 92 997.4
20260507015359 57 216 11.0 20.0 0.00 0.06 0.00 93 997.2
20260507014459 57 218 10.0 16.0 0.00 0.06 0.00 92 997.2
20260507012659 57 210 8.0 16.0 0.00 0.06 0.00 93 997.3
20260507005959 57 211 8.0 15.0 0.00 0.06 0.00 93 997.2
20260507005059 57 208 8.0 15.0 0.00 0.06 0.00 93 997.2
20260507004159 57 210 8.0 18.0 0.00 0.06 0.00 92 997.3
20260507003259 57 205 7.0 15.0 0.00 0.06 0.00 93 997.2
20260507002359 57 207 7.0 12.0 0.00 0.06 0.00 93 997.2
20260507001459 57 211 7.0 14.0 0.00 0.06 0.00 93 997.3
20260506235658 57 215 8.0 14.0 0.00 0.06 0.06 93 997.2
20260506234758 57 213 9.0 17.0 0.00 0.06 0.06 93 997.2
20260506232959 57 215 9.0 17.0 0.00 0.06 0.06 93 996.9
20260506231159 57 212 9.0 17.0 0.00 0.06 0.06 93 996.8
20260506225358 57 223 10.0 17.0 0.00 0.06 0.06 93 996.9
20260506224458 57 214 10.0 18.0 0.00 0.06 0.06 93 996.8
20260506223558 57 218 10.0 21.0 0.00 0.06 0.06 93 996.7
20260506222658 57 217 10.0 22.0 0.00 0.06 0.06 92 996.7
20260506221758 57 223 11.0 20.0 0.00 0.06 0.06 92 996.6
20260506220858 57 225 11.0 20.0 0.00 0.06 0.06 92 996.5
20260506215958 57 222 11.0 20.0 0.00 0.06 0.06 92 996.3
20260506214158 58 220 10.0 20.0 0.00 0.06 0.06 92 996.4
20260506213258 58 211 9.0 19.0 0.00 0.06 0.06 92 996.2
20260506211458 58 213 10.0 23.0 0.00 0.06 0.06 94 996.1
20260506210558 57 214 9.0 18.0 0.00 0.06 0.06 94 996.2
20260506202958 56 218 12.0 22.0 0.00 0.06 0.06 94 996.6
20260506202058 56 219 13.0 26.0 0.00 0.06 0.06 94 996.8
20260506201158 56 217 13.0 26.0 0.00 0.06 0.06 94 996.9
20260506200258 56 212 13.0 29.0 0.00 0.06 0.06 93 996.7
20260506195358 56 211 13.0 27.0 0.00 0.06 0.06 93 996.5
20260506194458 56 215 12.0 31.0 0.00 0.06 0.06 93 996.6
20260506193558 57 209 13.0 31.0 0.01 0.06 0.06 92 996.7
20260506192658 57 213 12.0 29.0 0.01 0.06 0.06 92 996.6
20260506191758 58 211 11.0 27.0 0.01 0.06 0.06 92 996.8
20260506190858 57 199 11.0 26.0 0.01 0.06 0.06 93 996.6
20260506185958 57 203 11.0 26.0 0.01 0.06 0.06 93 996.8
20260506185058 57 209 13.0 25.0 0.01 0.06 0.06 93 997.2
20260506184158 57 211 14.0 29.0 0.02 0.06 0.06 93 997.4
20260506183258 57 217 12.0 24.0 0.02 0.05 0.05 94 997.4
20260506182358 57 206 11.0 26.0 0.03 0.05 0.05 94 997.6
20260506181458 56 208 9.0 23.0 0.04 0.05 0.05 94 997.7
20260506175657 56 205 11.0 28.0 0.05 0.05 0.05 94 997.8
20260506174757 57 216 12.0 28.0 0.05 0.05 0.05 94 998.3
20260506173857 57 218 10.0 22.0 0.04 0.04 0.04 94 998.2
20260506172057 57 203 10.0 21.0 0.02 0.02 0.02 92 998.6
20260506171157 57 212 11.0 22.0 0.01 0.01 0.01 91 998.8
20260506170257 58 215 12.0 22.0 0.00 0.00 0.00 90 998.8
20260506165357 58 212 11.0 21.0 0.00 0.00 0.00 89 998.8
20260506164457 58 217 11.0 25.0 0.00 0.00 0.00 89 999.0
20260506162657 59 207 12.0 27.0 0.00 0.00 0.00 87 999.0
20260506161757 59 211 11.0 27.0 0.00 0.00 0.00 86 999.2
20260506160857 59 211 13.0 27.0 0.00 0.00 0.00 86 999.2
20260506155957 59 205 12.0 27.0 0.00 0.00 0.00 86 999.0
20260506155057 59 210 14.0 29.0 0.00 0.00 0.00 86 999.3
20260506153257 60 211 12.0 28.0 0.00 0.00 0.00 85 999.4
20260506152357 60 214 10.0 27.0 0.00 0.00 0.00 85 999.6
20260506151457 59 205 12.0 31.0 0.00 0.00 0.00 86 999.5
20260506150557 59 213 11.0 24.0 0.00 0.00 0.00 86 999.3
20260506145657 59 197 11.0 28.0 0.00 0.00 0.00 86 999.3
20260506142957 60 196 11.0 22.0 0.00 0.00 0.00 85 999.5
20260506142056 60 206 12.0 24.0 0.00 0.00 0.00 85 999.4
20260506141156 60 209 11.0 26.0 0.00 0.00 0.00 85 999.4
20260506140256 59 204 14.0 31.0 0.00 0.00 0.00 86 999.6
20260506134456 59 210 13.0 28.0 0.00 0.00 0.00 86 999.7
20260506133556 59 210 13.0 27.0 0.00 0.00 0.00 86 999.5
20260506132656 59 201 12.0 27.0 0.00 0.00 0.00 87 999.6
20260506130856 59 220 12.0 27.0 0.00 0.00 0.00 86 999.4
20260506125956 59 211 11.0 22.0 0.00 0.00 0.00 86 999.5
20260506125056 59 202 11.0 22.0 0.00 0.00 0.00 86 999.6
20260506124156 59 210 12.0 27.0 0.00 0.00 0.00 85 999.7
20260506123256 60 212 13.0 27.0 0.00 0.00 0.00 86 1000.0
20260506122356 59 219 13.0 32.0 0.00 0.00 0.00 86 1000.1
20260506121456 59 211 13.0 29.0 0.00 0.00 0.00 86 1000.0
20260506120556 59 218 12.0 27.0 0.00 0.00 0.00 86 999.9
20260506114756 59 210 13.0 30.0 0.00 0.00 0.00 87 999.8
20260506113856 58 214 14.0 29.0 0.00 0.00 0.00 88 999.9
20260506112956 58 222 14.0 35.0 0.00 0.00 0.00 88 999.8
20260506112056 58 212 14.0 29.0 0.00 0.00 0.00 89 999.9
20260506111156 57 207 12.0 26.0 0.00 0.00 0.00 89 1000.0
20260506110256 57 218 13.0 27.0 0.00 0.00 0.00 91 1000.0
20260506105356 57 208 13.0 27.0 0.00 0.00 0.00 91 999.9
20260506103556 57 213 13.0 31.0 0.00 0.00 0.00 91 999.8
20260506102656 56 212 11.0 31.0 0.00 0.00 0.00 92 1000.0
20260506101756 56 212 12.0 29.0 0.00 0.00 0.00 92 999.9
20260506100856 56 213 12.0 25.0 0.00 0.00 0.00 92 999.9
20260506095956 56 210 12.0 24.0 0.00 0.00 0.00 92 999.8
20260506095055 56 209 12.0 23.0 0.00 0.00 0.00 92 999.7
20260506094155 56 216 12.0 23.0 0.00 0.00 0.00 92 999.7
20260506093256 56 212 13.0 28.0 0.00 0.00 0.00 92 999.7
20260506092355 56 213 13.0 27.0 0.00 0.00 0.00 92 999.6
20260506091455 56 210 11.0 23.0 0.00 0.00 0.00 92 999.8
20260506090555 56 214 13.0 30.0 0.00 0.00 0.00 91 999.8
20260506085655 56 217 12.0 27.0 0.00 0.00 0.00 91 999.9
20260506083855 56 212 12.0 27.0 0.00 0.00 0.00 91 1000.1
20260506082955 56 205 12.0 30.0 0.00 0.00 0.00 90 1000.1
20260506082055 56 201 13.0 28.0 0.00 0.00 0.00 90 1000.1
20260506081155 56 213 14.0 28.0 0.00 0.00 0.00 90 1000.0
20260506080255 56 219 13.0 28.0 0.00 0.00 0.00 90 1000.1
20260506072655 57 213 13.0 27.0 0.00 0.00 0.00 89 1000.3
20260506071755 57 215 15.0 29.0 0.00 0.00 0.00 88 1000.2
20260506070855 57 215 15.0 30.0 0.00 0.00 0.00 88 1000.3
20260506062355 58 216 15.0 32.0 0.00 0.00 0.00 86 1000.2
20260506061455 58 219 18.0 32.0 0.00 0.00 0.00 86 1000.2
20260506051154 58 219 17.0 31.0 0.00 0.00 0.00 84 1000.6
20260506050255 59 222 18.0 36.0 0.00 0.00 0.00 84 1000.6
20260506044455 59 220 21.0 38.0 0.00 0.00 0.00 83 1000.4
20260506043554 60 219 22.0 36.0 0.00 0.00 0.00 82 1000.4
20260506042654 59 221 21.0 33.0 0.00 0.00 0.00 82 1000.5
20260506041755 59 218 18.0 33.0 0.00 0.00 0.00 82 1000.5
20260506040854 59 220 18.0 42.0 0.00 0.00 0.00 82 1000.6
20260506035054 59 221 18.0 37.0 0.00 0.00 0.00 82 1000.4
20260506034154 59 220 18.0 37.0 0.00 0.00 0.00 81 1000.5
20260506033254 59 215 18.0 44.0 0.00 0.00 0.00 82 1000.5
20260506032354 59 211 19.0 39.0 0.00 0.00 0.00 81 1000.5
20260506031454 60 222 20.0 46.0 0.00 0.00 0.00 81 1000.3
20260506025654 60 220 18.0 39.0 0.00 0.00 0.00 81 1000.7
20260506024754 60 214 18.0 37.0 0.00 0.00 0.00 81 1000.5
20260506022954 60 216 19.0 35.0 0.00 0.00 0.00 80 1000.5